Regional Weather Roundup
Issued by NWS Portland, ME

Home | Current Version | Previous Version | Text Only | Print | Product List | Glossary On
Versions: 1 2 3 4 5 6 7 8 9 10 11 12 13 14 15 16 17 18 19 20 21 22 23 24 25 26 27 28 29 30 31 32 33 34 35 36 37 38 39 40 41 42 43 44 45 46 47 48 49 50
000
ASUS41 KGYX 220106
RWRGYX
WEATHER ROUNDUP FOR MAINE AND NEW HAMPSHIRE
NATIONAL WEATHER SERVICE GRAY ME
900 PM EDT THU SEP 21 2017

MEZ002-005-006-010-012-015-018-020-021-024-026-027-029-220200-
MAINE

CITY           SKY/WX    TMP DP  RH WIND       PRES   REMARKS
PORTLAND       CLOUDY    66  49  54 NE12      30.09R
SANFORD        CLOUDY    64  53  67 N10       30.09R
BAR HARBOR     CLOUDY    61  50  67 NE9       30.13R
WISCASSET      CLOUDY    65  49  56 VRB3      30.12R
ROCKLAND       MOCLDY    63  52  67 NE8       30.10R
FRYEBURG       PTCLDY    56  53  90 N5        30.14R
LEWISTONAUBURN PTCLDY    61  52  72 N5        30.13R
AUGUSTA        CLOUDY    63  48  58 NE9       30.13R
WATERVILLE     CLOUDY    59  50  72 N7        30.11R
BANGOR         CLOUDY    63  47  55 N6        30.14R
GREENVILLE       N/A     57  45  64 NE5       30.17R
MILLINOCKET    CLEAR     60  48  64 N5        30.17S
HOULTON        CLOUDY    61  44  53 E8        30.17R
PRESQUE ISLE   CLEAR     49  48  97 S3        30.20R FOG
FRENCHVILLE    CLEAR     61  39  44 SE3       30.19S
CARIBOU        CLEAR     58  44  60 E3        30.19R
$$

NHZ002-005-008-009-011-012-014-220200-
NEW HAMPSHIRE

CITY           SKY/WX    TMP DP  RH WIND       PRES   REMARKS
PORTSMOUTH     CLOUDY    66  51  58 N12       30.06R
ROCHESTER      CLOUDY    64  49  57 N7        30.08R
NASHUA         CLOUDY    65  53  65 NW7       30.08R
MANCHESTER     CLOUDY    67  51  56 N8        30.06R
CONCORD        CLOUDY    65  50  58 N7        30.10R
LACONIA        PTCLDY    65  51  60 NE7       30.12R
PLYMOUTH       FAIR      54  52  93 CALM      30.12R
BERLIN         CLEAR     51  47  86 CALM      30.17R
WHITEFIELD     CLEAR     53  48  83 CALM      30.15R
JAFFREY        CLOUDY    60  55  83 CALM      30.11R
KEENE          CLOUDY    58  54  86 CALM      30.10R
LEBANON        CLOUDY    58  56  93 NE5       30.10S
MT WASHINGTON  NOT AVBL
$$

VTZ005-007-008-220200-
VERMONT

CITY           SKY/WX    TMP DP  RH WIND       PRES   REMARKS
ST JOHNSBURY     N/A     59  54  83 MISG      30.12R
MONTPELIER     CLEAR     57  53  86 CALM      30.18R
BURLINGTON     CLOUDY    67  56  67 CALM      30.13R
$$

MAZ007-012-024-CTZ003-RIZ002-NYZ038-NYZ072-220200-
SOUTHERN NEW ENGLAND AND NY

CITY           SKY/WX    TMP DP  RH WIND       PRES   REMARKS
WORCESTER      CLOUDY    63  48  58 N14G23    30.06S
NANTUCKET      HVY RAIN  60  60 100 N39G52    29.79F FOG
PROVIDENCE     CLOUDY    69  52  54 N21G31    29.99S
HARTFORD       CLOUDY    67  56  67 N8        30.05R
ALBANY         MOCLDY    70  58  65 N8        30.08R
NEW YORK CITY  CLOUDY    75  64  68 N10       30.01R
$$

ANZ081-ANZ082-ANZ150-NHZ014-MEZ023>029-220200-
COASTAL MARINE OBSERVATIONS

STATION/POSITION TIME  TEMP    WIND        PRES    WAVE
                       AIR SEA DIR/SP/G            HT/PER
                 (UTC) (F)     (DEG/KT/KT) (MB)    (FT/S)
MOUNT DESERT ROC 0000   60      30/ 24/ 27 1018.2R
MATINICUS ROCK   0000   59      40/ 21/ 23 1017.7R
ISLE OF SHOALS   0000   64      40/ 18/ 20 1017.0R
JEFFREYS LEDGE   0006      63                N/A    10/ 9
CASHES LEDGE BUO 2350   60 61              1016.1   10/ 8
GEORGES BANK BUO 2350   76 75              1002.8   14/ 8
$$

.............KEY..............
   WCI - WIND CHILL
   TC  - TEMPERATURE IN CELSIUS
   VSB - VISIBILITY IN MILES
   HX  - HEAT INDEX
   FAIR- INDICATES FEW OR NO CLOUDS BELOW 12,000 FT, WITH NO
         SIGNIFICANT WEATHER AND/OR OBSTRUCTIONS TO VISIBILITY.






USA.gov is the U.S. government's official web portal to all federal, state and local government web resources and services.